[Iaude] MPEC U08: 2023 TQ15 [a=1.62,e=0.37,i=4.5,H=25.8]
    mpec at marsden.cfa.harvard.edu 
    mpec at marsden.cfa.harvard.edu
       
    Mon Oct 16 09:24:33 EDT 2023
    
    
  
M.P.E.C. 2023-U08                              Issued 2023 October 16, 13:23 UT
     The Minor Planet Electronic Circulars contain information on unusual
         minor planets, routine data on comets and natural satellites,
         and occasional editorial announcements.  They are published
    on behalf of Division F of the International Astronomical Union by the
          Minor Planet Center, Smithsonian Astrophysical Observatory,
                          Cambridge, MA 02138, U.S.A.
			  
             Prepared using the Tamkin Foundation Computer Network
                              MPC at CFA.HARVARD.EDU
            URL https://www.minorplanetcenter.net/    ISSN 1523-6714
                                   2023 TQ15                                    
Observations:
     K23T15Q*1C2023 10 14.29054301 41 42.097+05 21 17.60         20.81GVEU008G96
     K23T15Q 1C2023 10 14.29570701 41 42.745+05 21 37.55         20.92GVEU008G96
     K23T15Q 1C2023 10 14.30088301 41 43.451+05 21 57.53         20.93GVEU008G96
     K23T15Q 1C2023 10 14.30604701 41 44.110+05 22 17.00         21.12GVEU008G96
     K23T15Q  C2023 10 14.36430001 41 51.515+05 26 01.38         20.7 GVEU008H01
     K23T15Q  C2023 10 14.36847501 41 52.079+05 26 17.55         20.7 GVEU008H01
     K23T15Q  C2023 10 14.37593701 41 53.073+05 26 46.71         21.1 GVEU008H01
     K23T15Q  C2023 10 14.38644201 41 54.509+05 27 27.33         21.3 GVEU008H01
     K23T15Q KC2023 10 15.00297601 43 42.072+06 08 07.30         21.1 GVEU008J95
     K23T15Q KC2023 10 15.02352101 43 45.062+06 09 31.64         20.6 GVEU008J95
     K23T15Q KC2023 10 16.24479401 47 29.908+07 37 13.12         21.04GVEU008I52
     K23T15Q KC2023 10 16.24575601 47 30.030+07 37 16.97         21.13GVEU008I52
     K23T15Q KC2023 10 16.24672101 47 30.192+07 37 21.18         20.50GVEU008I52
     K23T15Q KC2023 10 16.27763 01 47 33.56 +07 39 31.3          20.9 VqEU008734
     K23T15Q KC2023 10 16.28590 01 47 34.80 +07 40 08.3          20.9 VqEU008734
     K23T15Q KC2023 10 16.29382 01 47 36.10 +07 40 44.2                qEU008734
     K23T15Q  C2023 10 16.38439101 47 56.346+07 48 02.18         21.58wXEU008F51
     K23T15Q  C2023 10 16.39652901 47 58.196+07 48 57.32         21.35wXEU008F51
     K23T15Q  C2023 10 16.41058901 48 00.350+07 50 01.90         21.06wXEU008F51
Observer details:
734 Farpoint Observatory, Eskridge.  Observers D. Cromer, G. Hug, D. Goodin,
    R. Valentine.  Measurer G. Hug.  0.69-m f/3.54 reflector + CCD.
F51 Pan-STARRS 1, Haleakala.  Observers J. Bulger, T. Lowe, P. Minguez, A.
    Schultz, I. Smith.  Measurers K. Chambers, T. de Boer, J. Fairlamb, H.
    Gao, M. Huber, C.-C. Lin, E. Magnier, Y. Ramanjooloo, R. Wainscoat, R.
    Weryk.  1.8-m Ritchey-Chretien + CCD.
G96 Mt. Lemmon Survey.  Observer D. C. Fuls.  Measurers E. C. Beshore, D. Fay,
    J. B. Fazekas, D. C. Fuls, A. R. Gibbs, A. D. Grauer, H. Groeller, J. K.
    Hogan, R. A. Kowalski, S. M. Larson, G. J. Leonard, D. Rankin, R. L.
    Seaman, F. C. Shelly, K. W. Wierzchos.  1.5-m reflector + 10K CCD.
H01 Magdalena Ridge Observatory, Socorro.  Observers W. H. Ryan, E. V. Ryan.
    Measurer W. H. Ryan.  2.4-m f/8.9 Ritchey-Chretien + CCD.
I52 Steward Observatory, Mt. Lemmon Station.  Observer J. K. Hogan.  Measurers
    E. C. Beshore, D. Fay, J. B. Fazekas, D. C. Fuls, A. R. Gibbs, A. D.
    Grauer, H. Groeller, J. K. Hogan, R. A. Kowalski, S. M. Larson, G. J.
    Leonard, D. Rankin, R. L. Seaman, F. C. Shelly, K. W. Wierzchos.  1.0-m
    prime focus + CCD.
J95 Great Shefford.  Observer P. Birtwhistle.  0.41-m f/6.3 Schmidt-Cassegrain
    + CCD.
Orbital elements:
2023 TQ15                                                Earth MOID = 0.0450 AU
Epoch 2023 Sept. 13.0 TT = JDT 2460200.5                Veres                   
M 327.01619              (2000.0)            P               Q                  
n   0.47683800     Peri.   35.54984     +0.47800655     -0.87767988             
a   1.6226399      Node    25.94642     +0.78656288     +0.41025918             
e   0.3732741      Incl.    4.51782     +0.39093295     +0.24772045             
P   2.07           H   25.82          G   0.15           U   9                  
Residuals in seconds of arc
231014 G96  0.1+  0.2+    231014 H01  0.0   0.1+    231016 734  0.1-  0.3+
231014 G96  0.4-  0.1+    231015 J95  0.4+  0.4-    231016 734  0.8+  0.6+
231014 G96  0.0   0.0     231015 J95  0.3-  0.1-    231016 F51  0.0   0.1-
231014 G96  0.2-  0.6-    231016 I52  0.2+  0.5+    231016 F51  0.1-  0.3-
231014 H01  0.1+  0.0     231016 I52  0.2-  0.0     231016 F51  0.0   0.2+
231014 H01  0.1+  0.0     231016 I52  0.0   0.2-
231014 H01  0.1-  0.2+    231016 734  0.7+  0.4+
Ephemeris:
2023 TQ15                a,e,i = 1.62, 0.37, 5                   q = 1.0170
Date    TT    R. A. (2000) Decl.     Delta      r    Elong.  Phase     V
2023 09 16    00 59 18.8 -07 26 30   0.2191  1.2116   158.0    18.1    23.9
...
2023 10 01    01 16 20.5 -03 44 14   0.1438  1.1414   165.9    12.3    22.6
...
2023 10 09    01 29 22.6 +00 39 33   0.1107  1.1083   170.1     8.9    21.9
...
2023 10 15    01 43 41.1 +06 09 02   0.08924 1.0861   173.3     6.2    21.2
2023 10 16    01 46 41.1 +07 19 45   0.08598 1.0826   173.6     5.9    21.1
2023 10 17    01 49 54.9 +08 35 56   0.08283 1.0793   173.9     5.6    21.0
...
2023 10 23    02 15 54.0 +18 28 26   0.06635 1.0606   170.0     9.4    20.7
...
2023 10 31    03 22 45.8 +37 59 41   0.05330 1.0403   152.0    26.7    20.7
...
2023 11 15    08 01 46.1 +57 59 29   0.06451 1.0188   115.5    61.2    22.1
M. P. C. Staff               (C) Copyright 2023 MPC           M.P.E.C. 2023-U08
    
    
More information about the Iaude
mailing list